Regional Weather Roundup
Issued by NWS

Home | Current Version | Previous Version | Text Only | Print | Product List | Glossary On
Versions: 1 2 3 4 5 6 7 8 9 10 11 12 13 14 15 16 17 18 19 20 21 22 23 24 25 26 27 28 29 30 31 32 33 34 35 36 37 38 39 40 41 42 43 44 45 46 47 48 49 50
000
ASUS44 KMEG 260110
RWRTN
TENNESSEE HOURLY STATE WEATHER ROUNDUP
NATIONAL WEATHER SERVICE MEMPHIS TN
700 PM CST SAT FEB 25 2017

TNZ002-004-019-021-049-052-054-088>092-260200-
WEST TENNESSEE

CITY           SKY/WX    TMP DP  RH WIND       PRES   REMARKS
MEMPHIS INTL   CLEAR     41  21  44 N3        30.14S
NWS MEMPHIS      N/A     38 N/A N/A MISG        N/A
JACKSON        CLEAR     40  21  46 W3        30.14S
UNION CITY     CLEAR     37  10  32 CALM      30.12R
PARIS          CLEAR     34  19  55 SW3       30.12S
HUNTINGDON     CLEAR     36  23  60 CALM      30.12S
$$

TNZ008-025-027-028-033-062-065-066-260200-
NORTH MIDDLE TENNESSEE

CITY           SKY/WX    TMP DP  RH WIND       PRES   REMARKS
NASHVILLE      CLEAR     43  16  33 NW10      30.10R
PORTLAND       CLEAR     37  21  52 NW5       30.09R WCI  34
CLARKSVILLE    CLEAR     37  18  46 W6        30.11R WCI  32
SMYRNA         CLEAR     39  20  46 NW9       30.11R WCI  33
COOKEVILLE     PTCLDY    36  23  60 CALM      30.05R
GALLATIN       PTCLDY    39  19  45 NW6       30.12R WCI  35
CROSSVILLE     CLEAR     34  16  47 NW5       30.03R WCI  30
$$

TNZ061-075-076-078-094-096-097-260200-
SOUTH MIDDLE TENNESSEE

CITY           SKY/WX    TMP DP  RH WIND       PRES   REMARKS
FAYETTEVILLE   CLEAR     43  19  39 NW5       30.07R
TULLAHOMA      CLEAR     37  16  41 NW5       30.06R WCI  34
WINCHESTER     CLEAR     41  19  42 NW5       30.06R
MCMINNVILLE    CLEAR     39  19  45 CALM      30.05R
COLUMBIA       CLEAR     39  19  45 NW3       30.09R
SHELBYVILLE    CLEAR     43  23  45 NW9       30.09R
$$

TNZ017-018-042-046-047-260200-
NORTHEAST TENNESSEE

CITY           SKY/WX    TMP DP  RH WIND       PRES   REMARKS
TRI CITIES     CLEAR     41  18  39 W13       29.96R
ELIZABETHTON   CLEAR     41  18  38 W9G17     29.94R
$$

TNZ012-013-036-069-073-074-260200-
CENTRAL EAST TENNESSEE

CITY           SKY/WX    TMP DP  RH WIND       PRES   REMARKS
KNOXVILLE      CLEAR     43  19  38 W6        30.01R
OAK RIDGE      CLEAR     43  16  33 W6        30.04R
GATLINBURG     CLEAR     43  18  36 W6        30.00R
MORRISTOWN     PTCLDY    41  19  42 NW10      29.98R
JACKSBORO      CLEAR     39  18  41 CALM      30.06R
$$

TNZ083-085-099-260200-
SOUTHEAST TENNESSEE

CITY           SKY/WX    TMP DP  RH WIND       PRES   REMARKS
CHATTANOOGA    CLEAR     46  20  35 NW9       30.04R
$$

SKY/WX REPORTED AS FAIR MEANS FEW OR NO CLOUDS BELOW
12 THOUSAND FEET.




USA.gov is the U.S. government's official web portal to all federal, state and local government web resources and services.